Weather in Paramaribo

Suriname     5°49′24″N   55°10′32″W
В апреле 2022 года жителям России запретили посещать сайт meteo.paraplan.net по решению Генеральной прокуратуры. Аудитория сайта уменьшилась в 10 раз. Владельцы сайта не видят смысла в поддержке погодного сервера в таких условиях. Сайт будет закрыт в октябре.
temp.,
°C
wind,
m/s
gust,
m/s
humid.,
%
clouds,
%
prec.,
mm/h
press.,
hPa
HPBL,
m
6 october, thu
thu600:00+23e199922 0.3 1011285
03:00+23ese1810033 0.3 1009264
06:00+22ese189932 0.0 1009250
09:00+28e36735 0.0 1011922
12:00+34e24436 0.0 10101976
15:00+33nne455058 0.0 10071360
18:00+28ne387360 0.0 1008599
21:00+25ene210844 0.0 1010511
7 october, fri
fri700:00+24ene18925 0.0 1011310
03:00+23ene199711 0.0 1009320
06:00+22e199815 0.0 1010316
09:00+28ese36690 0.0 1012897
12:00+34e24385 0.0 10101694
15:00+36nne343860 0.0 10072157
18:00+28ne49725 0.0 1008675
21:00+26ene310815 0.0 1010669
8 october, sat
sat800:00+25ene210865 0.0 1010688
03:00+24ene210908 0.0 1008664
06:00+23e169631 0.0 1009243
09:00+28ese367097 0.1 10111096
12:00+35e2441100 0.0 10092125
15:00+35nne454124 0.0 10061654
18:00+28ne3966100 0.0 1007700
21:00+26ene2108755 0.0 1009575
9 october, sun
sun900:00+25ene21087100 0.0 1009642
03:00+23e1298100 0.4 100854
06:00+23ese139926 0.0 100983
09:00+28e27795 0.1 1011752
12:00+35e243954 0.0 10102236
15:00+35nne454653 0.0 10061517
18:00+28ne3107229 0.0 1007664
21:00+25ne2109119 0.3 1010509
10 october, mon
mon1000:00+24e288848 0.0 1010390
03:00+23e15965 0.0 1009136
06:00+23ese119812 0.0 101032
09:00+29e366949 0.0 10131122
12:00+35ene24402 0.0 10112367
15:00+34nne455138 0.0 10081114
18:00+29ne397229 0.0 1009626
21:00+26e311835 0.0 1011822